Regional Weather Roundup
Issued by NWS

Home | Current Version | Previous Version | Graphics & Text | Print | Product List | Glossary On
Versions: 1 2 3 4 5 6 7 8 9 10 11 12 13 14 15 16 17 18 19 20 21 22 23 24 25 26 27 28 29 30 31 32 33 34 35 36 37 38 39 40 41 42 43 44 45 46 47 48 49 50
000
ASUS45 KSLC 191910
RWRUT

UTAH REGIONAL WEATHER ROUNDUP
NATIONAL WEATHER SERVICE SALT LAKE CITY UT
100 PM MDT FRI SEP 19 2014

UTZ001>011-023>025-192000-

NORTHERN UTAH

CITY           SKY/WX    TMP DP  RH WIND       PRES   REMARKS
HILL AFB       NOT AVBL
LOGAN          SUNNY     73  56  54 VRB3      30.09F
OGDEN          SUNNY     77  53  43 NW8       30.07S
PROVO AIRPORT  MOSUNNY   75  55  50 W8        30.08S
SALT LAKE CITY MOSUNNY   77  53  43 NW6       30.05S
VERNAL         SUNNY     78  46  32 W3        30.08F
WENDOVER       SUNNY     79  41  25 NE7       30.08S
HEBER CITY     SUNNY     77  48  36 CALM      30.11S
WEST JORDAN    SUNNY     75  54  46 N5        30.08F

$$

UTZ012>022-026-027-192000-

SOUTHERN UTAH

CITY           SKY/WX    TMP DP  RH WIND       PRES   REMARKS
BRYCE CANYON   MOSUNNY   70  44  39 NW5       30.24F
CEDAR CITY     MOSUNNY   79  39  23 VRB6      30.11F
MILFORD        SUNNY     84  45  25 VRB5      30.06F
MOAB/CYNLANDS  SUNNY     86  42  21 VRB6      29.98F
PRICE          PTSUNNY   77  48  35 W7        30.10S
ST GEORGE      CLEAR     90  52  27 N3        29.94F
KANAB            N/A     82  48  30 S6        30.08F

$$

REGIONAL REPORTS     COLORADO/ARIZONA

CITY           SKY/WX    TMP DP  RH WIND       PRES   REMARKS
CRAIG, CO      SUNNY     80  44  27 VRB7      30.12F
GRAND JUNCTION SUNNY     83  41  22 SW6       30.02F
RIFLE          SUNNY     80  39  23 VRB3      30.07F
MONTROSE       MOSUNNY   83  43  24 NW3       30.10F
CORTEZ         SUNNY     81  47  30 VRB7      30.11F
PAGE, AZ       MOSUNNY   88  45  22 N8        30.00F
GRAND CANYON   MOSUNNY   75  52  44 VRB3      30.18F
KINGMAN        SUNNY     87  45  23 MISG      29.97F
FLAGSTAFF      CLOUDY    65  55  70 NW7       30.22R

$$

REGIONAL REPORTS    NEVADA/IDAHO/WYOMING

CITY           SKY/WX    TMP DP  RH WIND       PRES   REMARKS
LAS VEGAS, NV  MOSUNNY   90  46  21 CALM      29.85F
ELY            SUNNY     75  43  31 VRB5      30.16S
ELKO           SUNNY     77  42  28 E7        30.10F
POCATELLO, ID  SUNNY     75  47  36 SW16      30.11F
BURLEY         SUNNY     73  47  39 W12G20    30.10F
EVANSTON, WY   SUNNY     68  42  38 CALM      30.22F
ROCK SPRINGS   SUNNY     72  43  35 W13G20    30.18F

$$


USA.gov is the U.S. government's official web portal to all federal, state and local government web resources and services.